sat.trackr.live / text

‹ back to catalog

STARLINK-34100

NORAD 64385 · 2025-127R

PAYLOAD ACTIVE UNKNOWN

§ Identity

Operator
Country
US
Launch date
2025-06-13
Launch site
AFETR
Launch vehicle
Mass (kg)
RCS (m²)

Purposes: comms

External: N2YO · Heavens-Above · Gunter

§ Orbital elements

Epoch: 2026-09-19T10:17:05.547552Z

Period
94.27 min
Inclination
42.9986°
Eccentricity
0.0001013
Mean motion
15.27586042 rev/d
Perigee alt
482.3 km
Apogee alt
483.7 km
Semi-major
6,861.2 km
B*
4.9070e-4
RAAN
165.9275°
Arg perigee
273.4314°
Mean anomaly
86.6421°
Rev number
7,204

§ Raw data

STARLINK-341001 64385U 25127R   26262.42853643  .00013268  00000+0  49070-3 0  99982 64385  42.9986 165.9275 0001013 273.4314  86.6421 15.27586042 72040

JSON: /api/v1/satellites/64385 · /tle

For live sub-satellite position, see the globe view (requires WebGL).

§ Visibility from observer

Set your observer location to see the next 7 days of passes ≥ 10°. The values pass through the URL so the page stays shareable.

No JS? Fill the form by hand. The geolocation button needs JavaScript.